Simultaneous Nadir Overpasses (SNOs) Predictions

Prediction of SNOs between AQUA and NPP Satellite Orbit:

Table of predicted SNOs for the next 14.0 days since TLE Epoch: 5/6/2016
Index Date (AQUA) Time (AQUA) Lat,Lon (AQUA) SZA (AQUA ) Date (NPP) Time (NPP) Lat,Lon (NPP) SZA (NPP ) Distance(km) Time Diff (sec)
1 05/08/2016 05:33:32 73.94, -29.62 82.51 05/08/2016 05:32:35 73.94, -29.63 82.56 0.23 57
2 05/08/2016 06:22:35 -75.20, 141.11 98.90 05/08/2016 06:22:55 -75.19, 141.03 98.90 2.55 20
3 05/10/2016 21:49:45 74.50, 87.58 81.20 05/10/2016 21:49:18 74.50, 87.56 81.23 0.49 27
4 05/10/2016 22:38:50 -75.64,-101.77 100.09 05/10/2016 22:39:40 -75.63,-101.85 100.12 2.39 50
5 05/13/2016 13:17:11 -73.12, 32.79 97.94 05/13/2016 13:15:57 -73.14, 32.74 97.87 2.21 74
6 05/13/2016 14:05:57 75.14,-154.89 79.83 05/13/2016 14:06:00 75.14,-154.88 79.83 0.40 3
7 05/13/2016 14:50:53 -80.97, 96.78 115.47 05/13/2016 14:52:06 -80.33, 94.99 115.78 78.89 73
8 05/16/2016 05:33:12 -74.34, 151.33 99.88 05/16/2016 05:32:28 -74.34, 151.36 99.84 0.91 44
9 05/16/2016 06:22:09 75.76, -37.26 78.52 05/16/2016 06:22:42 75.77, -37.18 78.47 2.42 33
10 05/18/2016 21:49:31 -74.60, -92.13 100.74 05/18/2016 21:49:18 -74.60, -92.20 100.71 2.02 13




NCC Satellite Simultaneous Nadir Overpasses (SNOs) Prediction Service
